"Pseudo-MPEC" for X74149

Created 2021 Sep 20 18:07:19 UT using Find_Orb

Click here for an explanation of pseudo-MPECs

 
 Astrometry: 
     X74149   C2021 09 10NR/qPFAstrometry,mfhR9redacted;nfP6a3click7here.\SuYD29
     X74149   C2021 09 10@XK15ycDforpnjexplanationVa1D9JlY]@g_1vudKmwEKHV`Gt+D29
     X74149   C2021 09 10qhONO`LB1s!1VAyoSODqT7oyb=V#?*bjr7!xEC/rDt(?MQLVuD0fD29

Station data:
(D29) Purple Mountain Observatory, XuYi Station  (N32.734366 E118.463900)
   China.  Observers H. B. Zhao, B. Li, G. Zhaori, R. Q. Hong, L. F. Hu.
   Measurers H. B. Zhao, B. Li. H. Lu, G. Zhaori. 1.04-m f/1.8 Schmidt + CCD.

Orbital elements:  X74149
   Perihelion 2021 Sep 26.403590 +/- 40.258 TT =  9:41:10 (JD 2459483.903590)
Epoch 2021 Sep 11.0 TT = JDT 2459468.5   Earth MOID: 0.2663   Ju: 0.4342
M 357.28505278 +/- 28.554160        (J2000 ecliptic)          AutoNEOCP
n   0.17625418 +/- 0.268873         Peri.  196.53411 +/- 64.383665
a   3.15047781 +/- 3.19985          Node   159.26914 +/- 4.1753779
e   0.5979630 +/- 0.257295          Incl.   12.16558 +/- 6.8538420
P   5.59                   H 22.1   G  0.15   U 11.9  SR
q 1.26660840 +/- 0.382771    Q 5.03434723 +/- 40.5706
From 3 observations 2021 Sept. 10 (40.7 min); mean residual 0".25
Residuals in arcseconds: 
210910 D29  .06+  .24-    210910 D29  .10-  .49+    210910 D29  .08+  .23-    

Ephemerides (geocentric):
Date (UTC) HH   RA              Dec         delta   r     elong  mag " sig PA
---- -- -- --  -------------   -----------  ------ ------ -----  --- ---- ---
2021 09 20 18  22 08 02.449   -22 26 05.71  .30256 1.2684 146.9 21.2  34d 175
2021 09 20 19  22 08 09.829   -22 27 21.43  .30262 1.2683 146.9 21.2  34d 175
2021 09 20 20  22 08 17.213   -22 28 37.04  .30267 1.2683 146.8 21.2  34d 175
2021 09 20 21  22 08 24.602   -22 29 52.55  .30273 1.2683 146.8 21.2  34d 175
2021 09 20 22  22 08 31.996   -22 31 07.95  .30279 1.2683 146.8 21.2  34d 175
2021 09 20 23  22 08 39.395   -22 32 23.24  .30284 1.2682 146.7 21.2  34d 175
2021 09 21 00  22 08 46.799   -22 33 38.42  .30290 1.2682 146.7 21.2  34d 175
2021 09 21 01  22 08 54.208   -22 34 53.50  .30296 1.2682 146.7 21.2  34d 175
2021 09 21 02  22 09 01.621   -22 36 08.47  .30302 1.2682 146.7 21.2  34d 175
2021 09 21 03  22 09 09.040   -22 37 23.34  .30308 1.2681 146.6 21.2  34d 175
2021 09 21 04  22 09 16.463   -22 38 38.09  .30313 1.2681 146.6 21.2  34d 175
2021 09 21 05  22 09 23.891   -22 39 52.74  .30319 1.2681 146.6 21.2  34d 175
2021 09 21 06  22 09 31.324   -22 41 07.28  .30325 1.2681 146.6 21.2  34d 175
2021 09 21 07  22 09 38.762   -22 42 21.71  .30331 1.2680 146.5 21.2  34d 175
2021 09 21 08  22 09 46.204   -22 43 36.03  .30337 1.2680 146.5 21.2  34d 175
2021 09 21 09  22 09 53.652   -22 44 50.24  .30343 1.2680 146.5 21.2  34d 175
2021 09 21 10  22 10 01.104   -22 46 04.35  .30349 1.2680 146.4 21.2  34d 175
2021 09 21 11  22 10 08.561   -22 47 18.34  .30355 1.2680 146.4 21.2  34d 175
2021 09 21 12  22 10 16.022   -22 48 32.23  .30361 1.2679 146.4 21.2  34d 175
2021 09 21 13  22 10 23.489   -22 49 46.00  .30367 1.2679 146.4 21.2  34d 175
2021 09 21 14  22 10 30.959   -22 50 59.67  .30373 1.2679 146.3 21.2  34d 175
2021 09 21 15  22 10 38.435   -22 52 13.23  .30379 1.2679 146.3 21.2  34d 175
2021 09 21 16  22 10 45.916   -22 53 26.67  .30385 1.2678 146.3 21.2  34d 175
2021 09 21 17  22 10 53.401   -22 54 40.01  .30392 1.2678 146.2 21.2  34d 175
2021 09 21 18  22 11 00.890   -22 55 53.23  .30398 1.2678 146.2 21.2  34d 175
2021 09 21 19  22 11 08.385   -22 57 06.35  .30404 1.2678 146.2 21.2  34d 175
2021 09 21 20  22 11 15.884   -22 58 19.35  .30410 1.2678 146.2 21.2  34d 175
2021 09 21 21  22 11 23.387   -22 59 32.24  .30417 1.2677 146.1 21.2  34d 175
2021 09 21 22  22 11 30.895   -23 00 45.02  .30423 1.2677 146.1 21.2  34d 175
2021 09 21 23  22 11 38.408   -23 01 57.69  .30429 1.2677 146.1 21.2  34d 175
2021 09 22 00  22 11 45.925   -23 03 10.25  .30435 1.2677 146.0 21.2  34d 175
2021 09 22 01  22 11 53.447   -23 04 22.69  .30442 1.2677 146.0 21.2  34d 175
2021 09 22 02  22 12 00.974   -23 05 35.03  .30448 1.2676 146.0 21.2  34d 175
2021 09 22 03  22 12 08.505   -23 06 47.25  .30455 1.2676 146.0 21.2  34d 175
2021 09 22 04  22 12 16.040   -23 07 59.36  .30461 1.2676 145.9 21.2  34d 175
2021 09 22 05  22 12 23.580   -23 09 11.35  .30468 1.2676 145.9 21.2  34d 175
2021 09 22 06  22 12 31.125   -23 10 23.23  .30474 1.2676 145.9 21.2  34d 175
2021 09 22 07  22 12 38.674   -23 11 35.00  .30481 1.2675 145.8 21.2  35d 175
2021 09 22 08  22 12 46.228   -23 12 46.66  .30487 1.2675 145.8 21.2  35d 175
2021 09 22 09  22 12 53.785   -23 13 58.20  .30494 1.2675 145.8 21.2  35d 175
2021 09 22 10  22 13 01.348   -23 15 09.63  .30500 1.2675 145.8 21.2  35d 175
2021 09 22 11  22 13 08.915   -23 16 20.95  .30507 1.2675 145.7 21.2  35d 175
2021 09 22 12  22 13 16.486   -23 17 32.15  .30514 1.2674 145.7 21.2  35d 175
2021 09 22 13  22 13 24.062   -23 18 43.24  .30520 1.2674 145.7 21.2  35d 175
2021 09 22 14  22 13 31.642   -23 19 54.21  .30527 1.2674 145.7 21.2  35d 175
2021 09 22 15  22 13 39.226   -23 21 05.07  .30534 1.2674 145.6 21.2  35d 175
2021 09 22 16  22 13 46.815   -23 22 15.82  .30540 1.2674 145.6 21.2  35d 175
2021 09 22 17  22 13 54.408   -23 23 26.45  .30547 1.2674 145.6 21.2  35d 175